Regional Weather Roundup
Issued by NWS

Home | Current Version | Previous Version | Text Only | Print | Product List | Glossary Off
Versions: 1 2 3 4 5 6 7 8 9 10 11 12 13 14 15 16 17 18 19 20 21 22 23 24 25 26 27 28 29 30 31 32 33 34 35 36 37 38 39 40 41 42 43 44 45 46 47 48 49 50

000
ASUS43 KMKX 291121
RWRWI

WISCONSIN REGIONAL WEATHER ROUNDUP
NATIONAL WEATHER SERVICE MILWAUKEE/SULLIVAN WI
600 AM CDT MON MAY 29 2017

NOTE: "FAIR" INDICATES FEW OR NO CLOUDS BELOW 12,000 FEET WITH NO
SIGNIFICANT WEATHER AND/OR OBSTRUCTIONS TO VISIBILITY.

WIZ001-002-006>008-014>016-023>028-291200-
NORTHWEST WISCONSIN

CITY           SKY/WX    TMP DP  RH WIND       PRES   REMARKS
SUPERIOR ARPT  NOT AVBL
ASHLAND        CLOUDY    51  48  89 SW8       29.63R
HAYWARD        CLOUDY    51  48  89 VRB3      29.67R
SIREN          LGT RAIN  52  49  89 W8        29.70S
CUMBERLAND     CLOUDY    52  46  82 W13       29.70R
RICE LAKE      CLOUDY    52  49  90 W7        29.71R
CHETEK         CLOUDY    52  49  92 W5        29.70R
LADYSMITH      CLOUDY    50  48  93 W7        29.69R
EAU CLAIRE     CLOUDY    53  50  89 W9        29.70R
MENOMONIE      CLOUDY    54  51  88 W10       29.71S
NEW RICHMOND   CLOUDY    52  49  92 W12       29.74R
OSCEOLA        CLOUDY    52  52 100 W9        29.76R
$$

WIZ003>005-009-010-017-018-291200-
NORTH CENTRAL WISCONSIN

CITY           SKY/WX    TMP DP  RH WIND       PRES   REMARKS
MANITOWISH WTR CLOUDY    47  47 100 SW3       29.63R
ARBOR VITAE    PTCLDY    49  48  94 SW6       29.64R
WOODRUFF       PTCLDY    49  48  94 SW6       29.64R
RHINELANDER    CLEAR     49  46  90 W6        29.65R
EAGLE RIVER    PTCLDY    46  46 100 SW7       29.63S
LAND O LAKES   CLOUDY    48  47  99 SW3       29.64R
PHILLIPS       PTCLDY    47  47  99 SW7       29.65S
TOMAHAWK       CLOUDY    47  45  92 CALM      29.67R
MEDFORD        MOCLDY    48  46  94 SW5       29.68R
MERRILL        CLOUDY    50  48  93 W5        29.67S
$$

WIZ029-030-035-036-043>047-291200-
CENTRAL WISCONSIN

CITY           SKY/WX    TMP DP  RH WIND       PRES   REMARKS
WAUSAU         PTCLDY    50  48  93 SW5       29.67R
MOSINEE        PTCLDY    48  48 100 SW8       29.70R
MARSHFIELD     CLOUDY    49  45  86 W6        29.69R
STEVENS POINT  PTCLDY    50  46  88 W7        29.70R
WAUPACA        CLEAR     54  48  82 W6        29.70R
WAUTOMA        CLEAR     51  47  86 SW7       29.72R
WISC RAPIDS    PTCLDY    50  46  86 SW6       29.71R
CAMP DOUGLAS   MOCLDY    53  47  79 SW12      29.73R HAZE
$$

WIZ011>013-019>022-031-037>040-048>050-291200-
NORTHEAST WISCONSIN

CITY           SKY/WX    TMP DP  RH WIND       PRES   REMARKS
ANTIGO         PTCLDY    47  47  98 W6        29.67R
SHAWANO        CLOUDY    55  49  82 CALM      29.67S
OCONTO         PTCLDY    53  48  82 W5        29.66S
STURGEON BAY   CLEAR     55  49  80 SW7       29.67S
GREEN BAY      RAIN      55  51  86 SW5       29.67S FOG
MANITOWOC      MOCLDY    54  49  83 SW7       29.70R
APPLETON       NOT AVBL
CLINTONVILLE   CLOUDY    54  46  76 W3        29.67S
OSHKOSH        PTCLDY    53  47  79 SW6       29.70R
$$

WIZ032>034-041-042-053>061-291200-
SOUTHWEST WISCONSIN

CITY           SKY/WX    TMP DP  RH WIND       PRES   REMARKS
LA CROSSE      CLEAR     56  46  69 W9        29.76R
SPARTA         PTCLDY    44  44  98 SW5       29.75R
VIROQUA        CLEAR     50  44  80 CALM      29.78R
BOSCOBEL       CLEAR     52  48  86 SW5       29.81R
PRAIRIE DU CHI MOCLDY    57  44  61 SW9       29.82R
PLATTEVILLE    CLOUDY    56  48  74 W12G17    29.83R
$$

WIZ056-057-062-063-064-067-068-291200-
SOUTH CENTRAL WISCONSIN

CITY           SKY/WX    TMP DP  RH WIND       PRES   REMARKS
REEDSBURG      CLEAR     51  47  86 SW8       29.76R
BARABOO/DELLS  CLEAR     52  45  76 SW8       29.76R
LONE ROCK      CLEAR     48  45  89 CALM      29.79R
MINERAL POINT  CLOUDY    55  46  71 W10       29.81R
MADISON        MOCLDY    57  44  62 VRB5      29.76R
MIDDLETON      MOCLDY    56  45  66 W9        29.78R
WATERTOWN      CLOUDY    55  48  76 SW7       29.75R
MONROE         CLOUDY    57  45  62 SW10      29.80R
JANESVILLE     PTCLDY    57  46  67 W8        29.79R
$$

WIZ051-052-058>065-066-070>072-291200-
SOUTHEAST WISCONSIN

CITY           SKY/WX    TMP DP  RH WIND       PRES   REMARKS
MILWAUKEE      PTCLDY    60  48  64 SW10      29.75R
WAUKESHA       PTCLDY    54  45  71 SW7       29.75S
MILWAUKEE/TIMM   N/A     55  45  67 SW12      29.75R
RACINE         PTCLDY    59  47  64 W8        29.76R
KENOSHA        CLEAR     57  49  74 W12       29.76R
FOND DU LAC    CLEAR     53  47  79 SW6       29.72R
SHEBOYGAN      PTCLDY    51  49  92 CALM      29.71R
WEST BEND      CLEAR     52  46  82 W8        29.72S
JUNEAU         MOCLDY    51  47  83 SW8       29.75R
$$

LSZ147-162-291200-
LAKE SUPERIOR

STATION/POSITION TIME  TEMP    WIND        PRES    WAVE
                       AIR SEA DIR/SP/G            HT/PER
                 (UTC) (F)     (DEG/KT/KT) (MB)    (FT/S)
W MID LAKE BUOY  1050   41 37  270/  4/  4 1001.6S   1
DEVILS ISLAND    1100   47     230/ 17/ 20 1002.5R
PORT WING        1040   54     240/ 11/ 15 1003.4S
SAXON HARBOR     1040   53     230/  7/ 11 1002.7S
$$

LMZ867-665-643>646-291200-
LAKE MICHIGAN

STATION/POSITION TIME  TEMP    WIND        PRES    WAVE
                       AIR SEA DIR/SP/G            HT/PER
                 (UTC) (F)     (DEG/KT/KT) (MB)    (FT/S)
CHAMBERS ISLAND  1040   53     200/  4/  7 1004.1R
N MID LAKE BUOY  1050   44 41  220/  8/ 10 1004.6R   1/ 4
NORTHPORT PIER   1040   53     240/  4/  8 1004.1R
SISTER BAY       0906   55     260/ 11/ 13   N/A
KEWAUNEE LAKESHO 1054   54     280/  5/  7 1004.9R
SHEBOYGAN LAKESH 1100   55     220/  3/  4 1005.7R
PORT WASHINGTON  1030   57     260/  6/  9 1007.1R
ATWATER BUOY     1009   59     230/ 14/ 17 1006.6S
MILWAUKEE LAKESH 1100   61     250/ 12/ 14   N/A
S MID LAKE BUOY  1050   52 47  240/ 10/ 12 1007.5R   1
KENOSHA   LAKESH 1100   61     250/  9/ 12 1007.8
$$

TC  - TEMPERATURE IN CELSIUS
VSB - VISIBILITY IN STATUTE MILES
WCI - WIND CHILL INDEX
HX  - HEAT INDEX





USA.gov is the U.S. government's official web portal to all federal, state and local government web resources and services.